When you browse on this site, cookies collect data to enhance your experience and personalize the content and advertising you see.
Visit our Privacy Policy to learn more. By continuing to use the site, you agree to this use of cookies and data.
  • In Romania
  • List of Countries
  • For 7 days
  • Water Temperature
  • Weather Map
  • Weather Widgets
  • user-avatar
    Login

    Hourly Weather Berat

    Today, 19 October, Saturday

    Time Temperature Precipitation Wind Pressure Humidity
    00:00 +17°C° 0 mm 0 mps 746 mmHg 82%
    01:00 +16°C° 0 mm 0 mps 746 mmHg 82%
    02:00 +18°C° 0 mm 1 mps 746 mmHg 82%
    03:00 +18°C° 0 mm 1 mps 746 mmHg 82%
    04:00 +18°C° 0 mm 1 mps 746 mmHg 82%
    05:00 +18°C° 0 mm 1 mps 746 mmHg 79%
    06:00 +19°C° 0 mm 1 mps 746 mmHg 76%
    07:00 +19°C° 0 mm 1 mps 746 mmHg 74%
    08:00 +21°C° 0 mm 1 mps 746 mmHg 66%
    09:00 +23°C° 0 mm 1 mps 747 mmHg 59%
    10:00 +25°C° 0 mm 1 mps 747 mmHg 51%
    11:00 +25°C° 0 mm 1 mps 747 mmHg 49%
    12:00 +26°C° 0 mm 2 mps 747 mmHg 47%
    13:00 +27°C° 0 mm 3 mps 746 mmHg 45%
    14:00 +26°C° 0 mm 3 mps 746 mmHg 50%
    15:00 +25°C° 0 mm 3 mps 746 mmHg 54%
    16:00 +24°C° 0 mm 3 mps 746 mmHg 59%
    17:00 +21°C° 0 mm 2 mps 746 mmHg 66%
    18:00 +21°C° 0 mm 1 mps 746 mmHg 74%
    19:00 +17°C° 0 mm 0 mps 747 mmHg 81%
    20:00 +17°C° 0 mm 0 mps 747 mmHg 81%
    21:00 +19°C° 0 mm 1 mps 747 mmHg 81%
    22:00 +19°C° 0 mm 1 mps 747 mmHg 82%
    23:00 +19°C° 0 mm 1 mps 747 mmHg 81%

    Tomorrow, 20 October, Sunday

    Time Temperature Precipitation Wind Pressure Humidity
    00:00 +19°C° 0 mm 1 mps 747 mmHg 81%
    01:00 +18°C° 0 mm 1 mps 747 mmHg 81%
    02:00 +18°C° 0 mm 1 mps 747 mmHg 80%
    03:00 +18°C° 0 mm 1 mps 747 mmHg 80%
    04:00 +18°C° 0 mm 1 mps 747 mmHg 79%
    05:00 +18°C° 0 mm 1 mps 747 mmHg 77%
    06:00 +19°C° 0 mm 1 mps 747 mmHg 74%
    07:00 +19°C° 0 mm 1 mps 748 mmHg 71%
    08:00 +21°C° 0 mm 1 mps 748 mmHg 64%
    09:00 +23°C° 0 mm 1 mps 748 mmHg 57%
    10:00 +25°C° 0 mm 1 mps 748 mmHg 49%
    11:00 +26°C° 0 mm 1 mps 748 mmHg 47%
    12:00 +27°C° 0 mm 2 mps 748 mmHg 45%
    13:00 +27°C° 0 mm 2 mps 748 mmHg 42%
    14:00 +26°C° 0 mm 2 mps 748 mmHg 47%
    15:00 +25°C° 0 mm 2 mps 747 mmHg 51%
    16:00 +25°C° 0 mm 2 mps 747 mmHg 55%
    17:00 +23°C° 0 mm 2 mps 748 mmHg 62%
    18:00 +21°C° 0 mm 1 mps 748 mmHg 69%
    19:00 +18°C° 0 mm 0 mps 748 mmHg 75%
    20:00 +18°C° 0 mm 0 mps 748 mmHg 75%
    21:00 +20°C° 0 mm 1 mps 748 mmHg 75%
    22:00 +20°C° 0 mm 1 mps 749 mmHg 75%
    23:00 +19°C° 0 mm 1 mps 748 mmHg 75%

    Day after tomorrow, 21 October, Monday

    Time Temperature Precipitation Wind Pressure Humidity
    00:00 +19°C° 0 mm 1 mps 748 mmHg 75%
    01:00 +19°C° 0 mm 1 mps 748 mmHg 75%
    02:00 +19°C° 0 mm 1 mps 748 mmHg 74%
    03:00 +19°C° 0 mm 1 mps 748 mmHg 74%
    04:00 +19°C° 0 mm 1 mps 748 mmHg 74%
    05:00 +19°C° 0 mm 1 mps 748 mmHg 71%
    06:00 +20°C° 0 mm 1 mps 748 mmHg 69%
    07:00 +20°C° 0 mm 1 mps 748 mmHg 66%
    08:00 +22°C° 0 mm 1 mps 748 mmHg 59%
    09:00 +24°C° 0 mm 1 mps 748 mmHg 52%
    10:00 +27°C° 0 mm 1 mps 749 mmHg 45%
    11:00 +27°C° 0 mm 1 mps 748 mmHg 43%
    12:00 +28°C° 0 mm 2 mps 748 mmHg 42%
    13:00 +28°C° 0 mm 3 mps 748 mmHg 41%
    14:00 +27°C° 0 mm 2 mps 748 mmHg 44%
    15:00 +26°C° 0 mm 2 mps 747 mmHg 48%
    16:00 +25°C° 0 mm 2 mps 747 mmHg 52%
    17:00 +24°C° 0 mm 2 mps 747 mmHg 58%
    18:00 +22°C° 0 mm 1 mps 747 mmHg 63%
    19:00 +19°C° 0 mm 0 mps 747 mmHg 68%
    20:00 +20°C° 0 mm 1 mps 748 mmHg 67%
    21:00 +20°C° 0 mm 1 mps 748 mmHg 66%
    22:00 +20°C° 0 mm 1 mps 748 mmHg 66%
    23:00 +20°C° 0 mm 1 mps 748 mmHg 65%

    22 October, Tuesday

    Time Temperature Precipitation Wind Pressure Humidity
    00:00 +20°C° 0 mm 1 mps 747 mmHg 64%
    01:00 +20°C° 0 mm 1 mps 747 mmHg 63%
    02:00 +19°C° 0 mm 1 mps 747 mmHg 63%
    03:00 +19°C° 0 mm 1 mps 747 mmHg 63%
    04:00 +19°C° 0 mm 1 mps 747 mmHg 62%
    05:00 +19°C° 0 mm 1 mps 747 mmHg 60%
    06:00 +20°C° 0 mm 1 mps 747 mmHg 58%
    07:00 +20°C° 0 mm 1 mps 747 mmHg 56%
    08:00 +23°C° 0 mm 1 mps 747 mmHg 49%
    09:00 +25°C° 0 mm 1 mps 748 mmHg 41%
    10:00 +28°C° 0 mm 1 mps 748 mmHg 33%
    11:00 +28°C° 0 mm 1 mps 748 mmHg 32%
    12:00 +29°C° 0 mm 2 mps 747 mmHg 30%
    13:00 +30°C° 0 mm 2 mps 747 mmHg 28%
    14:00 +28°C° 0 mm 2 mps 747 mmHg 34%
    15:00 +27°C° 0 mm 2 mps 747 mmHg 39%
    16:00 +26°C° 0 mm 2 mps 746 mmHg 44%
    17:00 +24°C° 0 mm 1 mps 747 mmHg 48%
    18:00 +23°C° 0 mm 1 mps 747 mmHg 52%
    19:00 +21°C° 0 mm 1 mps 747 mmHg 55%
    20:00 +21°C° 0 mm 1 mps 747 mmHg 54%
    21:00 +21°C° 0 mm 1 mps 747 mmHg 53%
    22:00 +20°C° 0 mm 1 mps 748 mmHg 52%
    23:00 +19°C° 0 mm 2 mps 747 mmHg 51%

    23 October, Wednesday

    Time Temperature Precipitation Wind Pressure Humidity
    00:00 +19°C° 0 mm 2 mps 747 mmHg 50%
    01:00 +19°C° 0 mm 2 mps 747 mmHg 49%
    02:00 +18°C° 0 mm 2 mps 747 mmHg 49%
    03:00 +18°C° 0 mm 2 mps 747 mmHg 49%
    04:00 +18°C° 0 mm 2 mps 747 mmHg 49%
    05:00 +18°C° 0 mm 2 mps 747 mmHg 49%
    06:00 +18°C° 0 mm 2 mps 747 mmHg 49%
    07:00 +19°C° 0 mm 2 mps 747 mmHg 48%
    08:00 +22°C° 0 mm 1 mps 747 mmHg 41%
    09:00 +25°C° 0 mm 1 mps 748 mmHg 35%
    10:00 +28°C° 0 mm 1 mps 748 mmHg 28%
    11:00 +28°C° 0 mm 1 mps 747 mmHg 26%
    12:00 +29°C° 0 mm 1 mps 747 mmHg 25%
    13:00 +30°C° 0 mm 2 mps 747 mmHg 23%
    14:00 +29°C° 0 mm 1 mps 747 mmHg 28%
    15:00 +27°C° 0 mm 1 mps 746 mmHg 34%
    16:00 +26°C° 0 mm 1 mps 746 mmHg 39%
    17:00 +24°C° 0 mm 1 mps 746 mmHg 42%
    18:00 +23°C° 0 mm 1 mps 746 mmHg 46%
    19:00 +21°C° 0 mm 1 mps 747 mmHg 50%
    20:00 +21°C° 0 mm 1 mps 747 mmHg 48%
    21:00 +21°C° 0 mm 1 mps 747 mmHg 47%
    22:00 +19°C° 0 mm 2 mps 747 mmHg 46%
    23:00 +19°C° 0 mm 2 mps 747 mmHg 45%

    24 October, Thursday

    Time Temperature Precipitation Wind Pressure Humidity
    00:00 +19°C° 0 mm 2 mps 747 mmHg 44%
    01:00 +18°C° 0 mm 2 mps 747 mmHg 43%
    02:00 +18°C° 0 mm 2 mps 747 mmHg 44%
    03:00 +18°C° 0 mm 2 mps 747 mmHg 44%
    04:00 +18°C° 0 mm 2 mps 747 mmHg 44%
    05:00 +18°C° 0 mm 2 mps 746 mmHg 44%
    06:00 +18°C° 0 mm 2 mps 746 mmHg 44%
    07:00 +18°C° 0 mm 2 mps 746 mmHg 44%
    08:00 +21°C° 0 mm 2 mps 747 mmHg 38%
    09:00 +25°C° 0 mm 1 mps 747 mmHg 31%
    10:00 +27°C° 0 mm 1 mps 747 mmHg 25%
    11:00 +28°C° 0 mm 1 mps 747 mmHg 24%
    12:00 +29°C° 0 mm 2 mps 747 mmHg 23%
    13:00 +29°C° 0 mm 2 mps 746 mmHg 23%
    14:00 +28°C° 0 mm 2 mps 746 mmHg 29%
    15:00 +27°C° 0 mm 2 mps 746 mmHg 35%
    16:00 +26°C° 0 mm 2 mps 746 mmHg 41%
    17:00 +24°C° 0 mm 1 mps 746 mmHg 46%
    18:00 +22°C° 0 mm 1 mps 746 mmHg 51%
    19:00 +18°C° 0 mm 0 mps 746 mmHg 56%
    20:00 +20°C° 0 mm 1 mps 747 mmHg 54%
    21:00 +20°C° 0 mm 1 mps 747 mmHg 52%
    22:00 +20°C° 0 mm 1 mps 747 mmHg 51%
    23:00 +19°C° 0 mm 1 mps 747 mmHg 49%
    Show more